STARLINK-11247, 60720

Orbit data source: Space-Track

STARLINK-11247, 60720 is a payload satellite owned by SpaceX/Seattle (US) in LEO that was launched on Wed, 28 Aug 2024 UTC via an FALCON 9 launch vehicle from the Air Force Eastern Test Range (AFETR). Payload-class satellites include a variety of spacecraft equipped with specific instruments for various scientific and technological missions. These include communications satellites like Starlink; space stations such as the ISS; scientific satellites like the Hubble; Earth observation satellites from companies like Planet Labs, Umbra, and HawkEye 360; GPS; miniature CubeSats for education and research; and military/defense satellites.

Loading next visibility...
Identifier
60720, 2024-152A
Orbit
LEO
Country
Flag of USUS
Related business
Manufacturer
SpaceX/Seattle
Mission
Operational Commercial Communications
Bus & Motor
STARLINK V2MD, Unknown motor
Mass
960 kg wet, ~910 kg dry
Launch date (UTC)
2024-08-28 (1 year ago)
Launch vehicle
FALCON 9
Launch site
Air Force Eastern Test Range (AFETR)
Object type
Payload
Rocket body
Debris
Shape & HBR
Box + 2 Pan, 18.1 m
Radar Cross Section
36.964 m², Large (>1 m²)

Expand to show TLE details & history
Last TLE update: 7 hours ago

TLE from 7 hours ago
0 STARLINK-11247
1 60720U 24152A   25296.11861256 -.00000760  00000-0 -14171-5 0  9997
2 60720  53.1582  74.7535 0000804  83.5833 276.5277 15.69711173 67228
Epoch: 2025-10-23T02:50Z
TLE epoch observation values (Epoch: 2025-10-23T02:50:48.125Z)
Latitude
0.00004°
Longitude
0.27056°
Altitude
360.577 km
Speed
7.694 km/s
True Right ascension
04h 59m 00s
True Declination
0° 00' 00"
Sunlit
Object was in full shadow at epoch
Visualization orbit readout
Latitude
Unknown
Longitude
Unknown
Altitude
Unknown
Speed
Unknown
Apparent Right ascension
Unknown
Apparent Declination
Unknown
Sunlit
N/A
Visualization observer readout
Local Sidereal Time
04:47:14
Azimuth
Unknown
Elevation
Unknown
Doppler factor
Unknown
Orbital elements
Apogee altitude
360.526 km
Perigee altitude
359.443 km
Semi-major axis
6,738.121 km
Eccentricity
0.00008
Inclination
53.1582°
RAAN
74.7535°
Arg. of periapsis
83.5833°
True anomaly
276.51855°
Mean anomaly
276.5277°
Eccentric anomaly
276.52312°
Mean motion
3.92405 °/min
Orbital period
91.74 mins
BSTAR
-0.0000014171
Loading maneuver chart data...
Computing Atmospheric mass density...
Loading historical data...
Loading historical data...
Loading historical data...
Loading historical data...
Loading historical data...
Loading historical data...
Loading historical data...

Documentation

Showing up to 5 results
|